DHK399 RJFF-RJTT

Flight info

Callsign DHK399
Flight time N/A
Altitude 31000
Route RJFF YOKAT6 IPRIR Y231 OMKAT Y235 FLUTE Y23 ARTIC Y71 XAC XAC2B RJTT
Aircraft B77L/H-VGD/A

Departure

Time 2026-05-07 14:20
Airport Fukuoka Airport (RJFF)

Arrival

Time N/A
Airport Tokyo Haneda International Airport (RJTT)
Time Latitude Longitude Altitude Speed Heading
2026-05-07 13:38 33.58853 130.44356 31 ft 0 kts 233°
2026-05-07 14:01 33.58863 130.44374 31 ft 3 kts 258°
2026-05-07 14:01 33.58864 130.44378 31 ft 3 kts 253°
2026-05-07 14:01 33.58874 130.44398 29 ft 3 kts 210°
2026-05-07 14:01 33.58892 130.44405 29 ft 3 kts 166°
2026-05-07 14:02 33.58902 130.44401 29 ft 0 kts 143°
2026-05-07 14:10 33.58878 130.44422 31 ft 15 kts 149°
2026-05-07 14:10 33.58852 130.44353 31 ft 1 kts 233°
2026-05-07 14:11 33.58843 130.44346 31 ft 2 kts 200°
2026-05-07 14:11 33.58837 130.44348 31 ft 0 kts 171°
2026-05-07 14:12 33.58800 130.44394 20 ft 18 kts 124°
2026-05-07 14:12 33.58706 130.44531 32 ft 22 kts 117°
2026-05-07 14:13 33.58616 130.44680 33 ft 23 kts 153°
2026-05-07 14:13 33.58466 130.44771 34 ft 25 kts 153°
2026-05-07 14:13 33.58318 130.44880 36 ft 23 kts 146°
2026-05-07 14:13 33.58193 130.44975 37 ft 16 kts 149°
2026-05-07 14:14 33.58163 130.44996 36 ft 5 kts 152°
2026-05-07 14:14 33.58151 130.45003 37 ft 0 kts 152°
2026-05-07 14:16 33.58148 130.45005 37 ft 5 kts 152°
2026-05-07 14:16 33.58026 130.45084 38 ft 31 kts 152°
2026-05-07 14:16 33.57879 130.45183 38 ft 15 kts 150°
2026-05-07 14:17 33.57772 130.45255 40 ft 18 kts 150°
2026-05-07 14:17 33.57690 130.45312 41 ft 5 kts 148°
2026-05-07 14:17 33.57641 130.45350 41 ft 11 kts 147°
2026-05-07 14:17 33.57596 130.45396 41 ft 7 kts 114°
2026-05-07 14:18 33.57599 130.45435 42 ft 7 kts 71°
2026-05-07 14:18 33.57637 130.45485 42 ft 9 kts 22°
2026-05-07 14:18 33.57666 130.45477 42 ft 0 kts 331°
2026-05-07 14:20 33.57729 130.45434 40 ft 52 kts 330°
2026-05-07 14:20 33.58435 130.44946 38 ft 179 kts 330°
2026-05-07 14:20 33.59681 130.44080 744 ft 214 kts 330°
2026-05-07 14:20 33.60984 130.43179 2263 ft 218 kts 326°
2026-05-07 14:21 33.62315 130.42257 3778 ft 224 kts 327°
2026-05-07 14:21 33.63730 130.41392 5359 ft 232 kts 335°
2026-05-07 14:21 33.65350 130.41200 7010 ft 240 kts 10°
2026-05-07 14:21 33.66853 130.42163 8582 ft 256 kts 44°
2026-05-07 14:22 33.67870 130.43975 9887 ft 268 kts 59°
2026-05-07 14:22 33.68756 130.45990 11033 ft 278 kts 65°
2026-05-07 14:22 33.69176 130.48246 12114 ft 286 kts 98°
2026-05-07 14:22 33.68545 130.50458 13366 ft 279 kts 134°
2026-05-07 14:23 33.67087 130.51865 14513 ft 263 kts 164°
2026-05-07 14:23 33.65406 130.52785 15559 ft 270 kts 161°
2026-05-07 14:23 33.63717 130.53915 16440 ft 286 kts 159°
2026-05-07 14:23 33.61918 130.55147 16932 ft 315 kts 155°
2026-05-07 14:24 33.60064 130.56726 16922 ft 330 kts 150°
2026-05-07 14:24 33.58250 130.58431 16955 ft 332 kts 149°
2026-05-07 14:24 33.56452 130.60130 16959 ft 335 kts 149°
2026-05-07 14:24 33.54608 130.61845 16950 ft 336 kts 150°
2026-05-07 14:25 33.52752 130.63542 16935 ft 336 kts 150°
2026-05-07 14:25 33.50887 130.65233 16957 ft 335 kts 150°
2026-05-07 14:25 33.49019 130.66910 16929 ft 335 kts 150°
2026-05-07 14:25 33.47150 130.68574 16939 ft 335 kts 151°
2026-05-07 14:26 33.45281 130.70237 16962 ft 334 kts 150°
2026-05-07 14:26 33.43416 130.71895 16945 ft 334 kts 151°
2026-05-07 14:26 33.41555 130.73548 16945 ft 333 kts 151°
2026-05-07 14:26 33.39697 130.75197 17006 ft 331 kts 151°
2026-05-07 14:27 33.37868 130.76820 17400 ft 326 kts 151°
2026-05-07 14:27 33.36025 130.78447 17916 ft 333 kts 151°
2026-05-07 14:27 33.34144 130.80106 18469 ft 337 kts 151°
2026-05-07 14:27 33.32373 130.81985 18952 ft 351 kts 134°
2026-05-07 14:28 33.31294 130.84696 19496 ft 377 kts 106°
2026-05-07 14:28 33.31261 130.87878 20079 ft 389 kts 81°
2026-05-07 14:28 33.31902 130.91016 20680 ft 390 kts 77°
2026-05-07 14:28 33.32566 130.94176 21310 ft 394 kts 78°
2026-05-07 14:29 33.33215 130.97377 21937 ft 398 kts 78°
2026-05-07 14:29 33.33851 131.00617 22586 ft 402 kts 78°
2026-05-07 14:29 33.34478 131.03889 23234 ft 405 kts 78°
2026-05-07 14:29 33.35100 131.07193 23827 ft 408 kts 79°
2026-05-07 14:30 33.35718 131.10518 24378 ft 410 kts 79°
2026-05-07 14:30 33.36324 131.13806 24930 ft 412 kts 79°
2026-05-07 14:30 33.36941 131.17168 25502 ft 414 kts 79°
2026-05-07 14:30 33.37559 131.20545 26102 ft 417 kts 78°
2026-05-07 14:31 33.38180 131.23951 26710 ft 420 kts 78°
2026-05-07 14:31 33.38804 131.27376 27324 ft 423 kts 78°
2026-05-07 14:31 33.39434 131.30837 27959 ft 427 kts 78°
2026-05-07 14:31 33.40069 131.34327 28611 ft 430 kts 78°
2026-05-07 14:32 33.40708 131.37850 29254 ft 433 kts 78°
2026-05-07 14:32 33.41348 131.41380 29925 ft 435 kts 78°
2026-05-07 14:32 33.41989 131.44918 30507 ft 436 kts 78°
2026-05-07 14:32 33.42638 131.48510 30789 ft 447 kts 78°
2026-05-07 14:33 33.43299 131.52180 30736 ft 451 kts 78°
2026-05-07 14:33 33.44614 131.59495 30800 ft 452 kts 78°
2026-05-07 14:34 33.45936 131.66874 30914 ft 453 kts 78°
2026-05-07 14:34 33.47257 131.74283 30943 ft 455 kts 78°
2026-05-07 14:35 33.48381 131.81760 30949 ft 456 kts 81°
2026-05-07 14:35 33.49402 131.89211 30936 ft 455 kts 81°
2026-05-07 14:36 33.50450 131.96693 30930 ft 454 kts 81°
2026-05-07 14:36 33.51509 132.04133 30925 ft 451 kts 81°
2026-05-07 14:37 33.52554 132.11489 30928 ft 449 kts 81°
2026-05-07 14:37 33.54115 132.22549 30924 ft 448 kts 81°
2026-05-07 14:38 33.55150 132.29916 30936 ft 448 kts 81°
2026-05-07 14:38 33.56861 132.37077 30938 ft 447 kts 68°
2026-05-07 14:39 33.59114 132.44053 30931 ft 449 kts 69°
2026-05-07 14:39 33.61278 132.51052 30948 ft 451 kts 69°
2026-05-07 14:40 33.63401 132.58162 30946 ft 453 kts 70°
2026-05-07 14:40 33.65508 132.65297 30933 ft 454 kts 70°
2026-05-07 14:41 33.67612 132.72433 30959 ft 453 kts 70°
2026-05-07 14:41 33.69715 132.79571 30947 ft 453 kts 70°
2026-05-07 14:42 33.71809 132.86696 30954 ft 452 kts 70°
2026-05-07 14:42 33.73898 132.93819 30939 ft 451 kts 70°
2026-05-07 14:43 33.75963 133.00880 30948 ft 450 kts 70°
2026-05-07 14:43 33.78035 133.07983 30941 ft 450 kts 70°
2026-05-07 14:44 33.80101 133.15095 30932 ft 450 kts 70°
2026-05-07 14:44 33.82142 133.22199 30848 ft 447 kts 70°